Аэропорт
Мары (UTAM)

 UTAM / MYP
ЗЦ Центральная Азия
Ашхабад (UTAA)
Ашхабад (UTAA)
 37.61940, 61.89670  / 728 ft

 UTAM 310900Z 29008G18KT 9999 SCT036CB SCT036 OVC100 21/12 Q1006 R88/CLRD70 NOSIG
 TAF UTAM 310435Z 3106/0106 31012G22KT 5000 BKN030 SCT050CB TEMPO 3106/3109 25012G22KT -SHRA PROB40 TEMPO 3106/3109 -TSSHRA TEMPO 3109/3115 30020G30KT 0800 DS -TSSHRA BKN020 TEMPO 3115/0103 3000 BR -TSSHRA BKN020
показать схемы
Название сценария Тип сценария Flight Simulator 9 Flight Simulator X Prepar3D v2 Prepar3D v3 Prepar3D v4 xPlane
UTAM for FS9 (Afcad) бесплатный
UTAM for FSX/P3D (Afcad) бесплатный

Аэропорт Мары — международный аэропорт города Мары, Туркменистан. Для обслуживания авиапассажиров в аэропорту построен новый терминал пропускной способностью 300 человек в час, соответствующий международным стандартам. Расположен 6 км северо-востоку от центра Мары. Новое здание аэровокзала площадью более 3 000 квадратных метров было сдано в эксплуатацию в 2009 году. Тогда и приобрел аэропорт статус «Международного». Две взлетно-посадочных полосы обслуживают междугородние и внутренние рейсы. Длина одной 3800 метров, второй – 2800. Аэропорт принимает самолеты АН 12, АН 26, АН 30, ТУ 134, ИЛ 76, ЯК 40, Boeing 737, Boeing757, Boeing 777 и другие, более легкие, а также вертолеты всех типов. Тип аэропорта: совместного базирования.



2020 © VATRUS division (Privacy Policy)